When you browse on this site, cookies collect data to enhance your experience and personalize the content and advertising you see.
Visit our Privacy Policy to learn more. By continuing to use the site, you agree to this use of cookies and data.
  • In Austria
  • List of Countries
  • For 7 days
  • Water Temperature
  • Weather Map
  • News
  • Weather Widgets
  • user-avatar
    Login

    Hourly Weather Quetame

    Today, 29 January, Wednesday

    Time Temperature Precipitation Wind Pressure Humidity
    00:00 +20°C° 0 mm 1 mps 638 mmHg 90%
    01:00 +18°C° 0 mm 0 mps 638 mmHg 90%
    02:00 +20°C° 0 mm 1 mps 638 mmHg 90%
    03:00 +20°C° 0 mm 1 mps 637 mmHg 90%
    04:00 +20°C° 0 mm 1 mps 637 mmHg 90%
    05:00 +20°C° 0 mm 1 mps 638 mmHg 89%
    06:00 +20°C° 0 mm 1 mps 638 mmHg 89%
    07:00 +18°C° 0 mm 0 mps 639 mmHg 89%
    08:00 +22°C° 0 mm 1 mps 640 mmHg 83%
    09:00 +24°C° 0 mm 1 mps 640 mmHg 77%
    10:00 +25°C° 0 mm 1 mps 641 mmHg 72%
    11:00 +26°C° 0.2 mm 1 mps 640 mmHg 71%
    12:00 +26°C° 0.2 mm 1 mps 640 mmHg 70%
    13:00 +26°C° 0.2 mm 2 mps 639 mmHg 69%
    14:00 +26°C° 0.3 mm 1 mps 638 mmHg 71%
    15:00 +26°C° 0.3 mm 1 mps 638 mmHg 74%
    16:00 +25°C° 0.3 mm 1 mps 637 mmHg 76%
    17:00 +24°C° 0.2 mm 1 mps 637 mmHg 81%
    18:00 +23°C° 0.2 mm 1 mps 637 mmHg 86%
    19:00 +20°C° 0.2 mm 0 mps 637 mmHg 90%
    20:00 +19°C° 0.1 mm 0 mps 637 mmHg 91%
    21:00 +21°C° 0.1 mm 1 mps 638 mmHg 91%
    22:00 +21°C° 0.1 mm 1 mps 638 mmHg 91%
    23:00 +19°C° 0.1 mm 0 mps 638 mmHg 91%

    Tomorrow, 30 January, Thursday

    Time Temperature Precipitation Wind Pressure Humidity
    00:00 +19°C° 0.1 mm 0 mps 638 mmHg 92%
    01:00 +18°C° 0.1 mm 0 mps 638 mmHg 92%
    02:00 +18°C° 0.1 mm 0 mps 637 mmHg 92%
    03:00 +18°C° 0.1 mm 0 mps 637 mmHg 92%
    04:00 +18°C° 0.1 mm 0 mps 637 mmHg 92%
    05:00 +18°C° 0 mm 0 mps 638 mmHg 91%
    06:00 +18°C° 0 mm 0 mps 638 mmHg 91%
    07:00 +18°C° 0 mm 0 mps 639 mmHg 90%
    08:00 +22°C° 0.1 mm 1 mps 639 mmHg 85%
    09:00 +23°C° 0.1 mm 1 mps 640 mmHg 79%
    10:00 +25°C° 0.1 mm 1 mps 641 mmHg 74%
    11:00 +25°C° 0.3 mm 2 mps 640 mmHg 73%
    12:00 +26°C° 0.3 mm 2 mps 639 mmHg 72%
    13:00 +26°C° 0.3 mm 2 mps 639 mmHg 71%
    14:00 +25°C° 0.2 mm 2 mps 638 mmHg 73%
    15:00 +25°C° 0.2 mm 1 mps 637 mmHg 75%
    16:00 +25°C° 0.2 mm 1 mps 637 mmHg 77%
    17:00 +23°C° 0.1 mm 1 mps 637 mmHg 81%
    18:00 +22°C° 0.1 mm 1 mps 637 mmHg 85%
    19:00 +21°C° 0.1 mm 1 mps 637 mmHg 90%
    20:00 +21°C° 0 mm 1 mps 638 mmHg 89%
    21:00 +21°C° 0 mm 1 mps 638 mmHg 88%
    22:00 +21°C° 0 mm 1 mps 639 mmHg 87%
    23:00 +20°C° 0 mm 1 mps 638 mmHg 88%

    Day after tomorrow, 31 January, Friday

    Time Temperature Precipitation Wind Pressure Humidity
    00:00 +20°C° 0 mm 1 mps 638 mmHg 89%
    01:00 +20°C° 0 mm 1 mps 638 mmHg 90%
    02:00 +19°C° 0 mm 1 mps 637 mmHg 90%
    03:00 +19°C° 0 mm 1 mps 637 mmHg 90%
    04:00 +19°C° 0 mm 1 mps 637 mmHg 90%
    05:00 +19°C° 0 mm 1 mps 637 mmHg 88%
    06:00 +19°C° 0 mm 1 mps 638 mmHg 87%
    07:00 +19°C° 0 mm 1 mps 638 mmHg 86%
    08:00 +22°C° 0 mm 1 mps 639 mmHg 77%
    09:00 +24°C° 0 mm 1 mps 640 mmHg 68%
    10:00 +26°C° 0 mm 2 mps 641 mmHg 59%
    11:00 +27°C° 0 mm 2 mps 640 mmHg 57%
    12:00 +27°C° 0 mm 2 mps 640 mmHg 55%
    13:00 +28°C° 0 mm 2 mps 639 mmHg 53%
    14:00 +28°C° 0 mm 2 mps 639 mmHg 55%
    15:00 +27°C° 0 mm 2 mps 638 mmHg 56%
    16:00 +27°C° 0 mm 2 mps 637 mmHg 58%
    17:00 +25°C° 0 mm 2 mps 637 mmHg 66%
    18:00 +23°C° 0 mm 1 mps 637 mmHg 75%
    19:00 +21°C° 0 mm 1 mps 637 mmHg 83%
    20:00 +20°C° 0 mm 1 mps 637 mmHg 83%
    21:00 +20°C° 0 mm 1 mps 638 mmHg 83%
    22:00 +19°C° 0 mm 1 mps 638 mmHg 84%
    23:00 +19°C° 0 mm 1 mps 638 mmHg 84%

    1 February, Saturday

    Time Temperature Precipitation Wind Pressure Humidity
    00:00 +19°C° 0 mm 1 mps 638 mmHg 85%
    01:00 +19°C° 0 mm 1 mps 638 mmHg 85%
    02:00 +19°C° 0 mm 1 mps 637 mmHg 85%
    03:00 +19°C° 0 mm 1 mps 637 mmHg 86%
    04:00 +19°C° 0 mm 1 mps 637 mmHg 86%
    05:00 +19°C° 0 mm 1 mps 638 mmHg 85%
    06:00 +19°C° 0 mm 1 mps 638 mmHg 84%
    07:00 +20°C° 0 mm 1 mps 639 mmHg 83%
    08:00 +22°C° 0 mm 1 mps 640 mmHg 75%
    09:00 +24°C° 0 mm 1 mps 640 mmHg 67%
    10:00 +26°C° 0 mm 2 mps 641 mmHg 59%
    11:00 +27°C° 0.1 mm 2 mps 641 mmHg 60%
    12:00 +27°C° 0.1 mm 2 mps 640 mmHg 61%
    13:00 +28°C° 0.1 mm 2 mps 639 mmHg 62%
    14:00 +27°C° 0.7 mm 2 mps 638 mmHg 67%
    15:00 +26°C° 0.7 mm 2 mps 637 mmHg 73%
    16:00 +25°C° 0.7 mm 1 mps 636 mmHg 79%
    17:00 +24°C° 0.3 mm 1 mps 636 mmHg 83%
    18:00 +23°C° 0.3 mm 1 mps 637 mmHg 87%
    19:00 +21°C° 0.3 mm 1 mps 637 mmHg 91%
    20:00 +21°C° 0.2 mm 1 mps 637 mmHg 91%
    21:00 +19°C° 0.2 mm 0 mps 638 mmHg 92%
    22:00 +19°C° 0.2 mm 0 mps 639 mmHg 92%
    23:00 +19°C° 0.1 mm 0 mps 638 mmHg 93%

    2 February, Sunday

    Time Temperature Precipitation Wind Pressure Humidity
    00:00 +19°C° 0.1 mm 0 mps 638 mmHg 93%
    01:00 +19°C° 0.1 mm 0 mps 638 mmHg 93%
    02:00 +19°C° 0.1 mm 0 mps 638 mmHg 93%
    03:00 +18°C° 0.1 mm 0 mps 638 mmHg 93%
    04:00 +18°C° 0.1 mm 0 mps 637 mmHg 93%
    05:00 +18°C° 0 mm 0 mps 638 mmHg 93%
    06:00 +18°C° 0 mm 0 mps 638 mmHg 92%
    07:00 +18°C° 0 mm 0 mps 639 mmHg 92%
    08:00 +22°C° 0 mm 1 mps 639 mmHg 85%
    09:00 +24°C° 0 mm 1 mps 640 mmHg 77%
    10:00 +26°C° 0 mm 1 mps 641 mmHg 70%
    11:00 +26°C° 0.1 mm 2 mps 640 mmHg 69%
    12:00 +26°C° 0.1 mm 2 mps 639 mmHg 68%
    13:00 +27°C° 0.1 mm 2 mps 639 mmHg 66%
    14:00 +26°C° 0.1 mm 2 mps 638 mmHg 69%
    15:00 +26°C° 0.1 mm 2 mps 637 mmHg 71%
    16:00 +25°C° 0.1 mm 1 mps 637 mmHg 74%
    17:00 +24°C° 0.1 mm 1 mps 637 mmHg 79%
    18:00 +23°C° 0.1 mm 1 mps 637 mmHg 85%
    19:00 +21°C° 0.1 mm 1 mps 637 mmHg 90%
    20:00 +21°C° 0 mm 1 mps 637 mmHg 89%
    21:00 +21°C° 0 mm 1 mps 638 mmHg 89%
    22:00 +21°C° 0 mm 1 mps 639 mmHg 88%
    23:00 +19°C° 0 mm 0 mps 638 mmHg 89%

    3 February, Monday

    Time Temperature Precipitation Wind Pressure Humidity
    00:00 +18°C° 0 mm 0 mps 638 mmHg 90%
    01:00 +18°C° 0 mm 0 mps 638 mmHg 91%
    02:00 +18°C° 0 mm 0 mps 638 mmHg 91%
    03:00 +18°C° 0 mm 0 mps 637 mmHg 91%
    04:00 +18°C° 0 mm 0 mps 637 mmHg 90%
    05:00 +18°C° 0 mm 0 mps 638 mmHg 89%
    06:00 +18°C° 0 mm 0 mps 638 mmHg 89%
    07:00 +18°C° 0 mm 0 mps 639 mmHg 88%
    08:00 +22°C° 0.1 mm 1 mps 639 mmHg 82%
    09:00 +23°C° 0.1 mm 1 mps 640 mmHg 76%
    10:00 +24°C° 0.1 mm 1 mps 641 mmHg 70%
    11:00 +25°C° 0 mm 2 mps 640 mmHg 66%
    12:00 +26°C° 0 mm 2 mps 640 mmHg 62%
    13:00 +27°C° 0 mm 2 mps 640 mmHg 57%
    14:00 +27°C° 0 mm 2 mps 639 mmHg 58%
    15:00 +27°C° 0 mm 2 mps 638 mmHg 59%
    16:00 +27°C° 0 mm 2 mps 638 mmHg 60%
    17:00 +25°C° 0 mm 2 mps 638 mmHg 68%
    18:00 +22°C° 0 mm 1 mps 637 mmHg 76%
    19:00 +20°C° 0 mm 1 mps 637 mmHg 84%
    20:00 +20°C° 0 mm 1 mps 638 mmHg 84%
    21:00 +19°C° 0 mm 1 mps 638 mmHg 84%
    22:00 +19°C° 0 mm 1 mps 639 mmHg 84%
    23:00 +18°C° 0 mm 1 mps 638 mmHg 83%
    Show more